#timestamp,LO_Frequency,Hit,StdDev 
1626451215.9,286047000.3,N
1626451235.7,286047002.7,N
1626451255.6,286047002.3,N
1626451275.4,286047002.6,N
1626451295.2,286047000.8,N
1626451315.1,286046999.0,N
1626451316.0,286046999.0,N
1626451335.8,286046998.9,N
1626451355.7,286046998.5,N
1626451375.5,286047000.8,N
1626451395.3,286047000.3,N
1626451415.2,286047001.0,N
1626451435.0,286047000.4,N
1626451435.9,286047000.4,N
1626451455.7,286047002.5,N
1626451475.6,286047002.7,N
1626451495.4,286047000.4,N
1626451515.3,286047000.2,N
1626451535.1,286047001.9,N
1626451536.0,286047001.9,N
1626451555.8,286047002.3,N
1626451575.7,286047002.0,N
1626451595.5,286047002.2,N
1626451615.3,286047001.5,N
1626451635.2,286047003.6,N
1626451655.0,286047004.4,N
1626451655.9,286047004.4,N
1626451675.8,286047002.6,N
1626451695.8,286047001.6,N
1626451715.6,286047004.0,N
1626451735.5,286047001.5,N
1626451755.3,286047002.6,N
1626451775.1,286047003.7,N
1626451795.9,286047003.6,N
1626451815.7,286047006.8,Y
1626451835.5,286047005.7,P
1626451855.4,286047004.8,N
1626451875.2,286047005.4,P
1626451895.1,286047003.3,N
1626451896.0,286047003.3,N
1626451915.8,286047003.5,N
1626451935.6,286047003.8,N
1626451955.5,286047003.4,N
1626451975.3,286047004.1,Y
1626451995.2,286046998.4,P
1626452015.9,286046998.6,N
1626452035.7,286047000.8,N
1626452055.6,286047001.2,N
1626452075.4,286047001.0,N
1626452095.3,286046998.3,N
1626452115.1,286047001.2,N
1626452116.0,286047001.2,N
1626452135.8,286047001.1,N
1626452155.7,286046998.4,N
1626452175.5,286046999.0,N
1626452195.3,286046999.5,N
1626452215.2,286046996.9,N
1626452235.0,286046998.0,N
1626452235.9,286046998.0,N
1626452255.8,286046996.2,N
1626452275.6,286046997.6,N
1626452295.4,286046995.3,N
1626452315.3,286046996.1,N
1626452335.1,286046995.7,N
1626452355.9,286046997.5,N
1626452375.7,286046995.4,N
1626452395.5,286046997.9,N
1626452415.4,286046995.3,N
1626452435.2,286046997.8,N
1626452455.0,286046998.9,N
1626452455.9,286046998.9,N
1626452475.8,286046999.1,N
1626452495.3,286046999.3,N
1626452515.1,286046998.8,N
1626452516.0,286046998.8,N
1626452535.8,286046998.1,N
1626452555.7,286047001.2,N
1626452575.5,286047000.6,N
1626452595.3,286046998.6,N
1626452615.2,286047000.3,N
1626452635.0,286047000.4,N
1626452635.9,286047000.4,N
1626452655.8,286047000.3,N
1626452675.6,286046998.6,N
1626452695.4,286046998.4,N
1626452715.3,286047001.0,N
1626452735.1,286047002.3,N
1626452755.9,286047002.2,N
1626452775.7,286047002.1,N
1626452795.5,286047002.3,N
1626452815.4,286047000.4,N
1626452835.2,286047000.5,N
1626452855.0,286047001.0,N
1626452855.9,286047001.0,N
1626452875.8,286047000.8,N
1626452895.6,286047001.2,N
1626452915.4,286046998.5,N
1626452935.3,286046998.2,N
1626452955.1,286046998.4,N
1626452975.9,286046998.2,N
1626452995.7,286047001.1,N
1626453015.5,286046998.6,N
1626453035.4,286047000.8,N
1626453055.2,286047000.9,N
1626453075.0,286047001.1,N
1626453076.0,286047001.1,N
1626453095.8,286046998.3,N
1626453115.6,286046998.3,N
1626453135.5,286047001.0,N
1626453155.3,286047000.5,N
1626453175.1,286046998.3,N
1626453195.9,286046998.7,N
1626453215.7,286047011.9,Y
1626453235.6,286046999.2,P
1626453255.4,286046999.0,N
1626453275.2,286047000.7,N
1626453295.1,286046998.9,N
1626453296.0,286046998.9,N
1626453315.8,286047000.7,N
1626453335.7,286046998.2,N
1626453355.5,286046998.7,N
1626453375.3,286046998.8,N
1626453395.2,286046999.0,N
1626453415.0,286046998.9,N
1626453415.9,286046998.9,N
1626453435.7,286046998.3,N
1626453455.6,286046998.3,N
1626453475.4,286046998.7,N
1626453495.3,286046998.4,N
1626453515.1,286046998.6,N
1626453535.8,286046996.8,Y
1626453555.7,286046999.2,P
1626453575.5,286046996.5,P
1626453595.4,286046997.6,N
1626453615.2,286046997.6,N
1626453635.0,286046997.5,N
1626453635.9,286046997.5,N
1626453655.8,286046997.6,N
1626453675.6,286046997.6,N
1626453695.4,286046997.7,N
1626453715.3,286046998.0,N
1626453735.1,286046995.5,Y
1626453755.9,286046997.4,P
1626453775.7,286046997.3,P
1626453795.5,286046997.9,P
1626453815.4,286046996.8,Y
1626453835.2,286047000.8,P
1626453855.1,286046998.8,N
1626453856.0,286046998.8,N
1626453875.8,286046998.4,N
1626453895.6,286046996.5,Y
1626453915.5,286047001.0,P
1626453935.3,286046998.1,N
1626453955.2,286046996.5,N
1626453975.9,286046996.7,N
1626453995.7,286046997.6,N
1626454015.6,286046999.2,N
1626454035.4,286046999.3,N
1626454055.2,286046998.8,N
1626454075.1,286046998.5,N
1626454076.0,286046998.5,N
1626454095.8,286046998.3,N
1626454115.7,286046999.0,N
1626454135.5,286046999.4,N
1626454155.3,286046994.9,Y
1626454175.2,286046996.7,P
1626454195.0,286046997.4,N
1626454195.9,286046997.4,P
1626454215.8,286046997.5,Y
1626454235.6,286047001.2,P
1626454255.4,286046999.4,N
1626454275.3,286046998.8,N
1626454295.1,286047001.2,N
1626454315.8,286047000.8,N
1626454335.7,286047000.8,N
1626454355.5,286047000.4,N
1626454375.4,286047000.6,N
1626454395.2,286046998.1,N
1626454415.0,286046998.7,N
1626454415.9,286046998.7,N
1626454435.8,286047000.6,N
1626454455.6,286047000.7,N
1626454475.5,286047000.4,N
1626454495.3,286047000.6,N
1626454515.1,286047000.9,N
1626454535.9,286046998.1,N
1626454555.7,286047001.1,N
1626454575.5,286047000.8,N
1626454595.4,286046999.9,N
1626454615.2,286047000.5,N
1626454635.0,286047000.0,N
1626454636.0,286047000.0,N
1626454655.8,286047000.4,N
1626454675.6,286047000.0,N
1626454695.5,286047000.1,N
1626454715.3,286047002.5,N
1626454735.1,286047000.1,N
1626454755.9,286047000.2,N
1626454775.7,286047002.3,N
1626454795.6,286046999.8,N
